Regional Weather Roundup
Issued by NWS

Home | Current Version | Previous Version | Graphics & Text | Print | Product List | Glossary On
Versions: 1 2 3 4 5 6 7 8 9 10 11 12 13 14 15 16 17 18 19 20 21 22 23 24 25 26 27 28 29 30 31 32 33 34 35 36 37 38 39 40 41 42 43 44 45 46 47 48 49 50
577
ASUS43 KDTX 210301
RWRMI
MICHIGAN HOURLY REGIONAL WEATHER ROUNDUP
NATIONAL WEATHER SERVICE DETROIT/PONTIAC MI
1000 PM EST TUE FEB 20 2018

NOTE: "FAIR" INDICATES FEW OR NO CLOUDS BELOW 12,000 FEET WITH NO
SIGNIFICANT WEATHER AND/OR OBSTRUCTION TO VISIBILITY.

MIZ047>049-052>055-059>063-066>070-074>076-081>083-210400-
SOUTHEAST LOWER MICHIGAN

CITY           SKY/WX    TMP DP  RH WIND       PRES   REMARKS
ADRIAN         MOCLDY    53  52  96 SW3       30.05R
ALMA           LGT RAIN  53  53 100 SW12      29.98R
ANN ARBOR      CLOUDY    53  53 100 SW3       30.03S
BAD AXE        LGT RAIN  53  53 100 S7        29.97R
CARO           LGT RAIN  55  54  99 S5        29.97F
DETROIT CITY   MOCLDY    60  55  83 NW9       30.03R
DETROIT        CLOUDY    59  54  83 NW5       30.03R
FLINT          LGT RAIN  54  54 100 S9        30.01R
GROSSE ILE     CLOUDY    60  57  89 NW13      30.03R
HILLSDALE      RAIN      54  52  94 W6        30.03R
HOWELL         DRIZZLE   55  54  97 SW5       30.03R

CITY           SKY/WX    TMP DP  RH WIND       PRES   REMARKS
JACKSON        LGT RAIN  56  55  97 SW6       30.03R FOG
LAMBERTVILLE   CLOUDY    60  54  82 CALM      30.04R
LANSING        LGT RAIN  55  55 100 S9        30.00R
LAPEER         RAIN      55  54  98 S6        30.01S
MASON          RAIN      56  53  89 SW5       30.02R
MONROE         CLOUDY    59  53  81 NW7       30.04R
MT. CLEMENS    MOCLDY    60  60 100 NW9       30.02R
PONTIAC        CLOUDY    55  55 100 W3        30.01S
PORT HOPE        N/A     55  53  93 VRB5      29.94R
PORT HURON     CLOUDY    55  54  94 CALM      30.02S
TRI CITIES     LGT RAIN  54  52  93 S12       29.98R
MIDLAND        DRIZZLE   54  53  99 SW9       29.97R
TROY           CLOUDY    58  55  89 CALM      30.04R
SAGINAW HB     LGT RAIN  52  52 100 S12       29.97R
$$
MIZ043>046-050>051-056>058-064>065-071>073-077>080-210400-
SOUTHWEST LOWER MICHIGAN

CITY           SKY/WX    TMP DP  RH WIND       PRES   REMARKS
BATTLE CREEK   RAIN      55  54  96 SW9       30.03R FOG
BENTON HARBOR  LGT RAIN  38  36  92 NW5       30.08R FOG     WCI  34
BIG RAPIDS     FLURRIES  38  35  87 W7        30.01R WCI  33
COLDWATER      RAIN      56  56 100 SW7       30.04R
FREMONT        DRIZZLE   37  33  86 NW7       30.05R WCI  32
HOLLAND        RAIN      39  36  89 NW5       30.07R FOG
GRAND RAPIDS   RAIN      44  43  96 NW13G23   30.05R FOG
IONIA          LGT RAIN  54  54 100 SW10      29.99R
KALAMAZOO      RAIN      51  49  92 NW20G26   30.05R FOG
LUDINGTON      DRIZZLE   35  33  94 W7        30.04R WCI  29
MARSHALL       RAIN      55  54  98 S5        30.03R
MOUNT PLEASANT LGT RAIN  47  45  94 W12G18    29.99R
MUSKEGON       LGT RAIN  38  34  85 W8        30.07R WCI  32
SOUTH HAVEN    MIX PCPN  39  38  94 N5        30.07S
$$
MIZ016>042-210400-
NORTHERN LOWER MICHIGAN

CITY           SKY/WX    TMP DP  RH WIND       PRES   REMARKS
ALPENA         CLOUDY    41  41 100 W7        29.94R
BEAVER ISLAND  CLOUDY    33  32  96 W13       29.99R WCI  24
BELLAIRE       CLOUDY    35  34  97 CALM      30.01R
CADILLAC       CLOUDY    35  35  99 W14       29.98R WCI  26
CHARLEVOIX     CLOUDY    33  33 100 W8        30.03R WCI  27
FRANKFORT      CLOUDY    37  34  90 W9        30.02R WCI  30
GAYLORD        CLOUDY    33  33 100 W12G24    29.94R WCI  24
GRAYLING       CLOUDY    38  37  99 W12       29.95R FOG     WCI  30
HARBOR SPRINGS CLOUDY    32  32 100 W10G16    29.99R WCI  24
HOUGHTON LAKE  CLOUDY    39  38  96 W12       29.97R WCI  32
MANISTEE       CLOUDY    35  33  92 W13       30.03R WCI  26
OSCODA         LGT RAIN  53  53  99 S10G21    29.90R
PELLSTON       CLOUDY    33  31  92 W8G18     29.98R WCI  26
ROGERS CITY    CLOUDY    38  37  96 W7G17     29.95R WCI  32
TRAVERSE CITY  CLOUDY    37  34  89 W12       30.01R WCI  29
$$
MIZ007>008-015-210400-
EASTERN UPPER MICHIGAN

CITY           SKY/WX    TMP DP  RH WIND       PRES   REMARKS
KINROSS        CLOUDY    31  30  96 NW13      29.93R WCI  21
MACKINAC ISLAN CLOUDY    32  32 100 W18G25    29.95R WCI  20
NEWBERRY       CLOUDY    29  28  96 W10G16    29.96R WCI  19
S. S. MARIE    CLOUDY    31  28  89 NW14G23   29.92R WCI  21
MUNISING         N/A     26  23  88 NW12G21   30.03R WCI  16
$$
MIZ004>006-011>014-085-210400-
CENTRAL UPPER MICHIGAN

CITY           SKY/WX    TMP DP  RH WIND       PRES   REMARKS
MANISTIQUE     CLOUDY    29  28  95 NW10      30.01R WCI  20
ESCANABA       CLOUDY    29  26  89 VRB6      30.04R WCI  23
MENOMINEE      CLOUDY    31  27  85 NW9       30.05R WCI  23
SAWYER-GWINN   CLOUDY    23  19  86 W5        30.01R WCI  17
$$
MIZ001>003-009>011-084-210400-
WESTERN UPPER MICHIGAN

CITY           SKY/WX    TMP DP  RH WIND       PRES   REMARKS
IRON MOUNTAIN  CLOUDY    25  20  81 W9        30.02R WCI  15
HOUGHTON       LGT SNOW  19  14  81 NW24G30   30.01R WCI   2
COPPER HARBOR    N/A     18  14  84 N18       30.03R WCI   2
IRONWOOD       FLURRIES  15  11  83 W13       30.10R WCI   1
$$

ABBREVIATIONS USED IN REMARKS
   TC - TEMPERATURE IN CELSIUS
  WCI - WIND CHILL INDEX
   HX - HEAT INDEX
  VSB - VISIBILITY





USA.gov is the U.S. government's official web portal to all federal, state and local government web resources and services.